SBI6215 UHWW-UHPP

Flight info

Callsign SBI6215
Flight time 2h 51m
Altitude 33000
Route DOLMA2F DOLMA B356 TD T575 PAREN/K0819F350 T575 AKOLA P175 NALAM T575 DITOR P175 NAMUL P176 UB T577 SAMIK SAMIK5N
Aircraft B738/M-SDE2E3FGHIRWXY/LB1

Departure

Time 2026-05-05 07:47
Airport Vladivostok International Airport (UHWW)

Arrival

Time 2026-05-05 10:39
Airport Yelizovo Airport (UHPP)
Time Latitude Longitude Altitude Speed Heading
2026-05-05 07:31 43.39752 132.16560 55 ft 0 kts 151°
2026-05-05 07:39 43.39753 132.16560 55 ft 0 kts 151°
2026-05-05 07:39 43.39770 132.16547 54 ft 2 kts 150°
2026-05-05 07:39 43.39783 132.16537 54 ft 2 kts 151°
2026-05-05 07:40 43.39796 132.16527 54 ft 2 kts 150°
2026-05-05 07:40 43.39808 132.16518 54 ft 0 kts 151°
2026-05-05 07:40 43.39817 132.16510 54 ft 2 kts 132°
2026-05-05 07:40 43.39825 132.16492 54 ft 2 kts 104°
2026-05-05 07:41 43.39825 132.16472 55 ft 2 kts 76°
2026-05-05 07:41 43.39823 132.16460 55 ft 1 kts 60°
2026-05-05 07:41 43.39820 132.16453 55 ft 0 kts 60°
2026-05-05 07:42 43.39820 132.16454 55 ft 0 kts 60°
2026-05-05 07:44 43.39822 132.16459 55 ft 2 kts 60°
2026-05-05 07:44 43.39843 132.16511 53 ft 9 kts 61°
2026-05-05 07:44 43.39884 132.16613 50 ft 14 kts 61°
2026-05-05 07:44 43.39936 132.16743 47 ft 15 kts 61°
2026-05-05 07:45 43.39991 132.16880 44 ft 16 kts 61°
2026-05-05 07:45 43.40048 132.17022 41 ft 15 kts 61°
2026-05-05 07:45 43.40097 132.17096 40 ft 9 kts
2026-05-05 07:45 43.40164 132.17054 40 ft 12 kts 330°
2026-05-05 07:46 43.40247 132.16990 39 ft 15 kts 331°
2026-05-05 07:46 43.40351 132.16911 37 ft 18 kts 330°
2026-05-05 07:46 43.40434 132.16828 38 ft 11 kts 287°
2026-05-05 07:46 43.40402 132.16718 37 ft 20 kts 240°
2026-05-05 07:47 43.40219 132.16266 45 ft 86 kts 241°
2026-05-05 07:47 43.39983 132.15680 56 ft 123 kts 240°
2026-05-05 07:47 43.39285 132.13933 112 ft 180 kts 238°
2026-05-05 07:47 43.38699 132.12460 822 ft 175 kts 238°
2026-05-05 07:48 43.38126 132.11057 1644 ft 167 kts 238°
2026-05-05 07:48 43.37570 132.09722 2243 ft 164 kts 239°
2026-05-05 07:48 43.36981 132.08298 2547 ft 179 kts 240°
2026-05-05 07:48 43.36352 132.06747 2886 ft 194 kts 241°
2026-05-05 07:49 43.35684 132.05058 3236 ft 210 kts 242°
2026-05-05 07:49 43.34982 132.03304 3891 ft 211 kts 243°
2026-05-05 07:49 43.34163 132.01636 4506 ft 217 kts 226°
2026-05-05 07:49 43.32824 132.00619 5102 ft 230 kts 198°
2026-05-05 07:50 43.31175 132.00498 5544 ft 251 kts 179°
2026-05-05 07:50 43.29433 132.01297 5797 ft 280 kts 152°
2026-05-05 07:50 43.28059 132.03313 6116 ft 303 kts 118°
2026-05-05 07:50 43.27581 132.06136 6647 ft 312 kts 87°
2026-05-05 07:51 43.27978 132.09047 7263 ft 312 kts 70°
2026-05-05 07:51 43.28714 132.11869 7735 ft 318 kts 67°
2026-05-05 07:51 43.29481 132.14710 8390 ft 320 kts 68°
2026-05-05 07:51 43.30194 132.17626 8906 ft 327 kts 71°
2026-05-05 07:52 43.30868 132.20610 9489 ft 330 kts 68°
2026-05-05 07:52 43.32021 132.23295 9931 ft 329 kts 41°
2026-05-05 07:52 43.33801 132.25263 10240 ft 333 kts 26°
2026-05-05 07:52 43.35818 132.26887 10566 ft 343 kts 22°
2026-05-05 07:53 43.37938 132.28465 11049 ft 349 kts 21°
2026-05-05 07:53 43.40072 132.30074 11671 ft 353 kts 22°
2026-05-05 07:53 43.42209 132.31739 12322 ft 355 kts 23°
2026-05-05 07:53 43.44351 132.33450 12941 ft 359 kts 23°
2026-05-05 07:54 43.46504 132.35195 13612 ft 360 kts 23°
2026-05-05 07:54 43.48672 132.36961 14150 ft 366 kts 24°
2026-05-05 07:54 43.50846 132.38739 14874 ft 366 kts 23°
2026-05-05 07:54 43.53050 132.40538 15409 ft 372 kts 24°
2026-05-05 07:55 43.55269 132.42353 16086 ft 372 kts 24°
2026-05-05 07:55 43.57486 132.44169 16708 ft 374 kts 24°
2026-05-05 07:55 43.59727 132.46002 17272 ft 377 kts 24°
2026-05-05 07:55 43.61977 132.47844 17902 ft 378 kts 24°
2026-05-05 07:56 43.64244 132.49701 18405 ft 382 kts 24°
2026-05-05 07:56 43.66530 132.51574 18929 ft 385 kts 24°
2026-05-05 07:56 43.68837 132.53466 19469 ft 388 kts 23°
2026-05-05 07:56 43.71149 132.55364 20038 ft 389 kts 24°
2026-05-05 07:57 43.73482 132.57279 20491 ft 393 kts 24°
2026-05-05 07:57 43.75044 132.58563 20908 ft 393 kts 24°
2026-05-05 07:57 43.78186 132.61153 21498 ft 398 kts 24°
2026-05-05 07:57 43.80511 132.63266 22002 ft 404 kts 29°
2026-05-05 07:58 43.82750 132.65649 22418 ft 411 kts 33°
2026-05-05 07:58 43.84926 132.68205 22959 ft 412 kts 35°
2026-05-05 07:58 43.87077 132.70843 23260 ft 418 kts 36°
2026-05-05 07:58 43.89239 132.73542 23752 ft 419 kts 36°
2026-05-05 07:59 43.91390 132.76244 24273 ft 419 kts 36°
2026-05-05 07:59 43.92834 132.78055 24493 ft 422 kts 36°
2026-05-05 07:59 43.95745 132.81697 25038 ft 426 kts 36°
2026-05-05 07:59 43.97946 132.84442 25454 ft 427 kts 36°
2026-05-05 08:00 43.99418 132.86275 25671 ft 430 kts 36°
2026-05-05 08:00 44.01647 132.89049 26090 ft 431 kts 35°
2026-05-05 08:00 44.04618 132.92746 26558 ft 435 kts 35°
2026-05-05 08:00 44.06873 132.95548 26936 ft 436 kts 35°
2026-05-05 08:01 44.09134 132.98362 27311 ft 438 kts 34°
2026-05-05 08:01 44.11402 133.01186 27634 ft 441 kts 34°
2026-05-05 08:01 44.13690 133.04036 27922 ft 444 kts 34°
2026-05-05 08:01 44.15989 133.06904 28295 ft 446 kts 34°
2026-05-05 08:02 44.18293 133.09782 28650 ft 447 kts 34°
2026-05-05 08:02 44.20627 133.12633 28961 ft 448 kts 32°
2026-05-05 08:02 44.23046 133.15335 29293 ft 447 kts 30°
2026-05-05 08:02 44.25527 133.17935 29620 ft 447 kts 28°
2026-05-05 08:03 44.28042 133.20492 29935 ft 448 kts 28°
2026-05-05 08:03 44.30576 133.23043 30213 ft 451 kts 27°
2026-05-05 08:03 44.33119 133.25606 30491 ft 453 kts 27°
2026-05-05 08:03 44.35674 133.28195 30837 ft 454 kts 28°
2026-05-05 08:04 44.38227 133.30799 31104 ft 456 kts 28°
2026-05-05 08:04 44.40799 133.33433 31307 ft 460 kts 28°
2026-05-05 08:04 44.43375 133.36085 31561 ft 462 kts 28°
2026-05-05 08:04 44.45967 133.38763 31881 ft 463 kts 28°
2026-05-05 08:05 44.48551 133.41444 32224 ft 463 kts 28°
2026-05-05 08:05 44.51163 133.44158 32436 ft 465 kts 28°
2026-05-05 08:05 44.53781 133.46881 32644 ft 467 kts 28°
2026-05-05 08:05 44.56394 133.49605 32638 ft 464 kts 28°
2026-05-05 08:06 44.61564 133.55020 32633 ft 458 kts 27°
2026-05-05 08:06 44.66739 133.60431 32638 ft 463 kts 27°
2026-05-05 08:07 44.71889 133.65833 32630 ft 460 kts 28°
2026-05-05 08:07 44.77028 133.71227 32624 ft 461 kts 28°
2026-05-05 08:08 44.82177 133.76649 32634 ft 461 kts 28°
2026-05-05 08:08 44.87295 133.82057 32623 ft 460 kts 28°
2026-05-05 08:09 44.92395 133.87457 32617 ft 459 kts 27°
2026-05-05 08:09 44.97564 133.92712 32614 ft 458 kts 26°
2026-05-05 08:10 45.02786 133.97876 32599 ft 458 kts 25°
2026-05-05 08:10 45.08001 134.03029 32608 ft 458 kts 25°
2026-05-05 08:11 45.13222 134.08228 32597 ft 458 kts 25°
2026-05-05 08:11 45.18412 134.13419 32593 ft 457 kts 25°
2026-05-05 08:12 45.23609 134.18638 32589 ft 456 kts 25°
2026-05-05 08:12 45.28794 134.23856 32580 ft 460 kts 25°
2026-05-05 08:13 45.34001 134.29117 32577 ft 457 kts 25°
2026-05-05 08:13 45.39162 134.34348 32578 ft 455 kts 25°
2026-05-05 08:14 45.44307 134.39575 32579 ft 457 kts 25°
2026-05-05 08:14 45.49464 134.44819 32583 ft 457 kts 25°
2026-05-05 08:15 45.54618 134.50070 32567 ft 456 kts 25°
2026-05-05 08:15 45.59782 134.55339 32576 ft 459 kts 25°
2026-05-05 08:16 45.64947 134.60626 32573 ft 458 kts 25°
2026-05-05 08:16 45.70092 134.65915 32572 ft 453 kts 26°
2026-05-05 08:17 45.75223 134.71192 32563 ft 459 kts 25°
2026-05-05 08:17 45.80405 134.76529 32555 ft 457 kts 25°
2026-05-05 08:18 45.85540 134.81845 32562 ft 458 kts 26°
2026-05-05 08:18 45.90481 134.87821 32559 ft 473 kts 35°
2026-05-05 08:19 45.94862 134.95055 32557 ft 484 kts 42°
2026-05-05 08:19 45.98904 135.02741 32556 ft 483 kts 44°
2026-05-05 08:20 46.02898 135.10507 32550 ft 485 kts 44°
2026-05-05 08:20 46.06933 135.18315 32552 ft 487 kts 44°
2026-05-05 08:21 46.10980 135.26095 32553 ft 486 kts 43°
2026-05-05 08:21 46.15010 135.33822 32570 ft 484 kts 43°
2026-05-05 08:22 46.19072 135.41610 32571 ft 485 kts 43°
2026-05-05 08:22 46.23121 135.49399 32556 ft 483 kts 43°
2026-05-05 08:23 46.27132 135.57147 32567 ft 484 kts 43°
2026-05-05 08:23 46.31187 135.64964 32564 ft 488 kts 43°
2026-05-05 08:24 46.35236 135.72802 32562 ft 485 kts 44°
2026-05-05 08:24 46.39331 135.80569 32562 ft 486 kts 42°
2026-05-05 08:25 46.43520 135.88241 32558 ft 482 kts 41°
2026-05-05 08:25 46.47695 135.95859 32561 ft 487 kts 42°
2026-05-05 08:26 46.51907 136.03570 32566 ft 489 kts 42°
2026-05-05 08:26 46.56081 136.11286 32550 ft 483 kts 41°
2026-05-05 08:27 46.60221 136.18971 32534 ft 486 kts 42°
2026-05-05 08:27 46.64366 136.26680 32536 ft 485 kts 42°
2026-05-05 08:28 46.68542 136.34459 32523 ft 487 kts 42°
2026-05-05 08:28 46.72673 136.42207 32515 ft 486 kts 42°
2026-05-05 08:29 46.76785 136.49929 32525 ft 482 kts 41°
2026-05-05 08:30 46.82944 136.61513 32518 ft 484 kts 41°
2026-05-05 08:30 46.87081 136.69320 32524 ft 490 kts 42°
2026-05-05 08:31 46.91179 136.77106 32527 ft 484 kts 42°
2026-05-05 08:31 46.95271 136.84882 32521 ft 484 kts 42°
2026-05-05 08:32 46.98687 136.91380 32514 ft 485 kts 42°
2026-05-05 08:32 47.03473 137.00510 32501 ft 485 kts 42°
2026-05-05 08:33 47.07574 137.08359 32506 ft 485 kts 42°
2026-05-05 08:33 47.11678 137.16235 32506 ft 489 kts 42°
2026-05-05 08:34 47.15758 137.24100 32499 ft 482 kts 42°
2026-05-05 08:34 47.19842 137.31985 32503 ft 485 kts 42°
2026-05-05 08:35 47.23938 137.39894 32500 ft 490 kts 42°
2026-05-05 08:35 47.28032 137.47838 32496 ft 482 kts 42°
2026-05-05 08:36 47.32108 137.55761 32489 ft 489 kts 41°
2026-05-05 08:36 47.36166 137.63679 32491 ft 485 kts 41°
2026-05-05 08:37 47.40232 137.71637 32490 ft 488 kts 43°
2026-05-05 08:37 47.44307 137.79658 32488 ft 490 kts 43°
2026-05-05 08:38 47.48367 137.87696 32484 ft 488 kts 42°
2026-05-05 08:38 47.52425 137.95733 32486 ft 493 kts 44°
2026-05-05 08:39 47.56485 138.03818 32488 ft 489 kts 43°
2026-05-05 08:39 47.60569 138.11942 32488 ft 496 kts 43°
2026-05-05 08:40 47.64652 138.20102 32489 ft 493 kts 43°
2026-05-05 08:40 47.68723 138.28268 32490 ft 497 kts 42°
2026-05-05 08:41 47.72766 138.36427 32490 ft 490 kts 43°
2026-05-05 08:41 47.76833 138.44632 32493 ft 498 kts 43°
2026-05-05 08:42 47.80264 138.51559 32485 ft 499 kts 43°
2026-05-05 08:42 47.85039 138.61254 32473 ft 495 kts 42°
2026-05-05 08:43 47.89088 138.69503 32470 ft 497 kts 43°
2026-05-05 08:43 47.93161 138.77791 32460 ft 496 kts 43°
2026-05-05 08:44 47.97245 138.86136 32458 ft 497 kts 44°
2026-05-05 08:44 48.01315 138.94496 32452 ft 499 kts 44°
2026-05-05 08:45 48.05414 139.02928 32469 ft 500 kts 43°
2026-05-05 08:45 48.08802 139.09945 32465 ft 499 kts 44°
2026-05-05 08:46 48.13525 139.19780 32459 ft 502 kts 44°
2026-05-05 08:46 48.17607 139.28310 32456 ft 501 kts 44°
2026-05-05 08:47 48.21601 139.36721 32468 ft 496 kts 44°
2026-05-05 08:47 48.25616 139.45152 32458 ft 500 kts 45°
2026-05-05 08:48 48.29648 139.53644 32476 ft 501 kts 45°
2026-05-05 08:48 48.33651 139.62121 32469 ft 498 kts 45°
2026-05-05 08:49 48.37662 139.70630 32487 ft 504 kts 46°
2026-05-05 08:49 48.41681 139.79186 32489 ft 498 kts 47°
2026-05-05 08:50 48.45667 139.87707 32491 ft 503 kts 47°
2026-05-05 08:50 48.49677 139.96268 32480 ft 499 kts 47°
2026-05-05 08:51 48.53669 140.04799 32474 ft 501 kts 47°
2026-05-05 08:51 48.57652 140.13334 32488 ft 499 kts 47°
2026-05-05 08:52 48.61330 140.22260 32490 ft 507 kts 54°
2026-05-05 08:52 48.64494 140.31769 32503 ft 510 kts 58°
2026-05-05 08:53 48.67499 140.41537 32553 ft 517 kts 60°
2026-05-05 08:53 48.70525 140.51462 32951 ft 519 kts 59°
2026-05-05 08:53 48.71534 140.54749 33101 ft 519 kts 60°
2026-05-05 08:54 48.73562 140.61329 33503 ft 516 kts 59°
2026-05-05 08:54 48.75073 140.66207 33896 ft 512 kts 60°
2026-05-05 08:54 48.76575 140.71048 34191 ft 509 kts 60°
2026-05-05 08:54 48.78075 140.75875 34369 ft 508 kts 60°
2026-05-05 08:55 48.79581 140.80711 34477 ft 509 kts 60°
2026-05-05 08:55 48.82604 140.90431 34497 ft 511 kts 60°
2026-05-05 08:56 48.85601 141.00122 34506 ft 507 kts 60°
2026-05-05 08:56 48.88595 141.09838 34502 ft 508 kts 60°
2026-05-05 08:57 48.91569 141.19533 34520 ft 507 kts 60°
2026-05-05 08:57 48.94520 141.29204 34520 ft 505 kts 60°
2026-05-05 08:58 48.97462 141.38877 34496 ft 506 kts 60°
2026-05-05 08:58 49.00392 141.48544 34525 ft 504 kts 60°
2026-05-05 08:59 49.03308 141.58192 34518 ft 504 kts 61°
2026-05-05 08:59 49.06223 141.67845 34529 ft 503 kts 61°
2026-05-05 09:00 49.08652 141.75908 34539 ft 503 kts 62°
2026-05-05 09:00 49.12028 141.87159 34534 ft 500 kts 62°
2026-05-05 09:01 49.14900 141.96775 34535 ft 501 kts 62°
2026-05-05 09:01 49.17763 142.06407 34529 ft 498 kts 62°
2026-05-05 09:02 49.20618 142.16043 34521 ft 499 kts 62°
2026-05-05 09:02 49.23467 142.25690 34520 ft 499 kts 62°
2026-05-05 09:03 49.26311 142.35358 34522 ft 499 kts 62°
2026-05-05 09:03 49.29145 142.45026 34525 ft 499 kts 62°
2026-05-05 09:04 49.31964 142.54676 34527 ft 498 kts 62°
2026-05-05 09:04 49.34314 142.62753 34527 ft 499 kts 62°
2026-05-05 09:05 49.37583 142.74040 34532 ft 498 kts 63°
2026-05-05 09:05 49.40380 142.83745 34534 ft 497 kts 63°
2026-05-05 09:06 49.43167 142.93445 34542 ft 498 kts 63°
2026-05-05 09:06 49.45484 143.01540 34544 ft 496 kts 63°
2026-05-05 09:07 49.48709 143.12852 34545 ft 497 kts 63°
2026-05-05 09:07 49.51458 143.22536 34541 ft 495 kts 63°
2026-05-05 09:08 49.54196 143.32222 34540 ft 495 kts 63°
2026-05-05 09:08 49.56923 143.41909 34521 ft 495 kts 63°
2026-05-05 09:09 49.59646 143.51626 34530 ft 494 kts 63°
2026-05-05 09:09 49.62361 143.61351 34517 ft 493 kts 63°
2026-05-05 09:10 49.65056 143.71039 34516 ft 494 kts 64°
2026-05-05 09:10 49.67748 143.80758 34503 ft 493 kts 64°
2026-05-05 09:11 49.70422 143.90455 34525 ft 493 kts 64°
2026-05-05 09:11 49.73091 144.00171 34501 ft 493 kts 64°
2026-05-05 09:12 49.75749 144.09891 34532 ft 492 kts 64°
2026-05-05 09:12 49.78397 144.19620 34545 ft 492 kts 64°
2026-05-05 09:13 49.81031 144.29335 34558 ft 492 kts 64°
2026-05-05 09:13 49.83657 144.39058 34577 ft 492 kts 64°
2026-05-05 09:14 49.86274 144.48787 34578 ft 489 kts 64°
2026-05-05 09:14 49.88873 144.58496 34581 ft 490 kts 64°
2026-05-05 09:15 49.91462 144.68208 34582 ft 488 kts 65°
2026-05-05 09:15 49.94036 144.77908 34577 ft 488 kts 65°
2026-05-05 09:16 49.96597 144.87595 34590 ft 487 kts 64°
2026-05-05 09:16 49.99154 144.97306 34578 ft 486 kts 64°
2026-05-05 09:17 50.01692 145.06992 34575 ft 485 kts 65°
2026-05-05 09:17 50.04224 145.16691 34573 ft 488 kts 65°
2026-05-05 09:18 50.06758 145.26438 34575 ft 486 kts 65°
2026-05-05 09:18 50.09266 145.36133 34580 ft 486 kts 65°
2026-05-05 09:19 50.11768 145.45841 34584 ft 484 kts 65°
2026-05-05 09:19 50.14257 145.55541 34583 ft 484 kts 65°
2026-05-05 09:20 50.16732 145.65228 34594 ft 482 kts 66°
2026-05-05 09:20 50.19198 145.74915 34583 ft 483 kts 66°
2026-05-05 09:21 50.21657 145.84615 34598 ft 482 kts 66°
2026-05-05 09:21 50.24101 145.94307 34585 ft 482 kts 66°
2026-05-05 09:22 50.26535 146.04003 34585 ft 481 kts 66°
2026-05-05 09:22 50.28962 146.13713 34587 ft 482 kts 66°
2026-05-05 09:23 50.31381 146.23434 34575 ft 481 kts 66°
2026-05-05 09:23 50.33787 146.33142 34588 ft 481 kts 66°
2026-05-05 09:24 50.36189 146.42875 34592 ft 481 kts 66°
2026-05-05 09:24 50.38579 146.52608 34584 ft 480 kts 66°
2026-05-05 09:25 50.40960 146.62350 34587 ft 481 kts 66°
2026-05-05 09:25 50.43330 146.72084 34580 ft 480 kts 67°
2026-05-05 09:26 50.45690 146.81824 34569 ft 479 kts 67°
2026-05-05 09:26 50.48043 146.91572 34573 ft 480 kts 68°
2026-05-05 09:27 50.50386 147.01326 34580 ft 479 kts 68°
2026-05-05 09:27 50.52725 147.11107 34570 ft 480 kts 68°
2026-05-05 09:28 50.55053 147.20889 34571 ft 480 kts 68°
2026-05-05 09:28 50.57369 147.30662 34576 ft 478 kts 68°
2026-05-05 09:29 50.59676 147.40435 34564 ft 478 kts 68°
2026-05-05 09:29 50.61972 147.50214 34575 ft 479 kts 68°
2026-05-05 09:30 50.64265 147.60019 34570 ft 479 kts 68°
2026-05-05 09:30 50.66548 147.69827 34553 ft 479 kts 69°
2026-05-05 09:31 50.68822 147.79641 34551 ft 479 kts 68°
2026-05-05 09:31 50.71086 147.89459 34545 ft 479 kts 68°
2026-05-05 09:32 50.73338 147.99273 34536 ft 476 kts 68°
2026-05-05 09:32 50.75583 148.09095 34537 ft 479 kts 68°
2026-05-05 09:33 50.77826 148.18953 34539 ft 478 kts 69°
2026-05-05 09:33 50.80055 148.28798 34536 ft 478 kts 69°
2026-05-05 09:34 50.82275 148.38647 34530 ft 477 kts 69°
2026-05-05 09:34 50.84485 148.48501 34517 ft 477 kts 69°
2026-05-05 09:35 50.86682 148.58348 34515 ft 476 kts 69°
2026-05-05 09:35 50.89971 148.73163 34496 ft 477 kts 70°
2026-05-05 09:36 50.92151 148.83047 34496 ft 477 kts 70°
2026-05-05 09:36 50.94325 148.92947 34500 ft 478 kts 70°
2026-05-05 09:37 50.96489 149.02854 34485 ft 477 kts 70°
2026-05-05 09:37 50.98644 149.12762 34480 ft 477 kts 70°
2026-05-05 09:38 51.00793 149.22693 34486 ft 478 kts 70°
2026-05-05 09:38 51.02932 149.32623 34469 ft 477 kts 70°
2026-05-05 09:39 51.04702 149.40880 34465 ft 476 kts 70°
2026-05-05 09:39 51.07175 149.52467 34454 ft 476 kts 70°
2026-05-05 09:40 51.09285 149.62409 34446 ft 477 kts 70°
2026-05-05 09:40 51.11388 149.72361 34433 ft 477 kts 71°
2026-05-05 09:41 51.13481 149.82319 34431 ft 477 kts 71°
2026-05-05 09:41 51.15566 149.92293 34441 ft 477 kts 71°
2026-05-05 09:42 51.17932 150.02087 34442 ft 476 kts 64°
2026-05-05 09:42 51.20946 150.11395 34429 ft 474 kts 59°
2026-05-05 09:43 51.24199 150.20502 34414 ft 475 kts 59°
2026-05-05 09:43 51.27480 150.29591 34406 ft 474 kts 59°
2026-05-05 09:44 51.30719 150.38689 34387 ft 473 kts 59°
2026-05-05 09:44 51.33930 150.47831 34390 ft 474 kts 59°
2026-05-05 09:45 51.37119 150.56995 34385 ft 473 kts 59°
2026-05-05 09:45 51.40301 150.66190 34378 ft 473 kts 60°
2026-05-05 09:46 51.42937 150.73842 34363 ft 473 kts 60°
2026-05-05 09:46 51.46618 150.84565 34355 ft 472 kts 60°
2026-05-05 09:47 51.49765 150.93766 34356 ft 472 kts 60°
2026-05-05 09:47 51.52900 151.02970 34354 ft 472 kts 60°
2026-05-05 09:48 51.56033 151.12199 34341 ft 472 kts 61°
2026-05-05 09:48 51.59158 151.21438 34318 ft 472 kts 61°
2026-05-05 09:49 51.62277 151.30692 34319 ft 473 kts 61°
2026-05-05 09:49 51.65387 151.39956 34307 ft 472 kts 61°
2026-05-05 09:50 51.68485 151.49221 34290 ft 472 kts 61°
2026-05-05 09:50 51.71575 151.58493 34283 ft 472 kts 61°
2026-05-05 09:51 51.74666 151.67803 34277 ft 473 kts 62°
2026-05-05 09:51 51.77743 151.77104 34269 ft 471 kts 62°
2026-05-05 09:52 51.80297 151.84852 34280 ft 472 kts 62°
2026-05-05 09:52 51.83868 151.95726 34260 ft 470 kts 62°
2026-05-05 09:53 51.86913 152.05035 34261 ft 470 kts 62°
2026-05-05 09:53 51.89956 152.14375 34239 ft 471 kts 62°
2026-05-05 09:54 51.92991 152.23723 34222 ft 470 kts 62°
2026-05-05 09:54 51.96013 152.33069 34214 ft 471 kts 62°
2026-05-05 09:55 51.99031 152.42436 34205 ft 470 kts 62°
2026-05-05 09:55 52.02038 152.51807 34196 ft 470 kts 62°
2026-05-05 09:56 52.05036 152.61184 34196 ft 470 kts 62°
2026-05-05 09:56 52.08028 152.70580 34191 ft 470 kts 63°
2026-05-05 09:57 52.11014 152.79989 34176 ft 470 kts 63°
2026-05-05 09:57 52.13987 152.89398 34186 ft 470 kts 63°
2026-05-05 09:58 52.16464 152.97264 34163 ft 470 kts 63°
2026-05-05 09:58 52.19918 153.08271 34156 ft 470 kts 63°
2026-05-05 09:59 52.22871 153.17723 34139 ft 469 kts 64°
2026-05-05 09:59 52.25810 153.27167 34132 ft 468 kts 64°
2026-05-05 10:00 52.28741 153.36622 34132 ft 469 kts 64°
2026-05-05 10:00 52.31670 153.46105 34137 ft 470 kts 64°
2026-05-05 10:01 52.34589 153.55596 34134 ft 469 kts 64°
2026-05-05 10:01 52.37501 153.65100 34132 ft 469 kts 65°
2026-05-05 10:02 52.40407 153.74623 34126 ft 470 kts 65°
2026-05-05 10:02 52.43304 153.84152 34121 ft 469 kts 65°
2026-05-05 10:03 52.46193 153.93692 34109 ft 469 kts 65°
2026-05-05 10:03 52.49070 154.03229 34090 ft 468 kts 65°
2026-05-05 10:04 52.51939 154.12782 34100 ft 468 kts 65°
2026-05-05 10:04 52.54795 154.22324 34102 ft 468 kts 65°
2026-05-05 10:05 52.57648 154.31899 34108 ft 468 kts 65°
2026-05-05 10:05 52.60489 154.41472 34107 ft 468 kts 65°
2026-05-05 10:06 52.63155 154.51209 34101 ft 467 kts 71°
2026-05-05 10:06 52.64924 154.61402 34092 ft 465 kts 79°
2026-05-05 10:07 52.66110 154.71791 34086 ft 463 kts 83°
2026-05-05 10:07 52.67166 154.82198 34086 ft 462 kts 83°
2026-05-05 10:08 52.68220 154.92614 34096 ft 464 kts 83°
2026-05-05 10:08 52.69294 155.03046 34097 ft 463 kts 82°
2026-05-05 10:09 52.70375 155.13457 34092 ft 463 kts 82°
2026-05-05 10:09 52.71458 155.23884 34083 ft 463 kts 82°
2026-05-05 10:10 52.72536 155.34314 34104 ft 464 kts 82°
2026-05-05 10:10 52.73429 155.43010 34105 ft 463 kts 82°
2026-05-05 10:11 52.74667 155.55172 34111 ft 464 kts 82°
2026-05-05 10:11 52.75721 155.65627 34104 ft 463 kts 83°
2026-05-05 10:12 52.76764 155.76074 34112 ft 463 kts 83°
2026-05-05 10:12 52.77795 155.86512 34108 ft 463 kts 83°
2026-05-05 10:13 52.78809 155.96963 34115 ft 464 kts 83°
2026-05-05 10:13 52.79816 156.07457 34121 ft 465 kts 84°
2026-05-05 10:14 52.80816 156.17963 34127 ft 464 kts 83°
2026-05-05 10:14 52.81881 156.28443 34135 ft 465 kts 80°
2026-05-05 10:15 52.83478 156.38775 34105 ft 464 kts 76°
2026-05-05 10:15 52.84371 156.43848 33847 ft 457 kts 76°
2026-05-05 10:15 52.85265 156.48808 33579 ft 449 kts 76°
2026-05-05 10:16 52.86147 156.53709 33178 ft 445 kts 76°
2026-05-05 10:16 52.87015 156.58591 32735 ft 443 kts 76°
2026-05-05 10:16 52.87865 156.63449 32313 ft 442 kts 76°
2026-05-05 10:16 52.88707 156.68332 31850 ft 441 kts 77°
2026-05-05 10:17 52.89537 156.73189 31374 ft 441 kts 77°
2026-05-05 10:17 52.90363 156.78067 30875 ft 442 kts 77°
2026-05-05 10:17 52.90908 156.81309 30541 ft 441 kts 77°
2026-05-05 10:17 52.91996 156.87806 29876 ft 441 kts 77°
2026-05-05 10:18 52.92806 156.92671 29336 ft 440 kts 77°
2026-05-05 10:18 52.93611 156.97526 28809 ft 439 kts 77°
2026-05-05 10:18 52.94413 157.02367 28294 ft 437 kts 77°
2026-05-05 10:18 52.95208 157.07180 27798 ft 435 kts 78°
2026-05-05 10:19 52.95998 157.11979 27292 ft 433 kts 78°
2026-05-05 10:19 52.96782 157.16755 26794 ft 431 kts 78°
2026-05-05 10:19 52.97302 157.19931 26461 ft 429 kts 78°
2026-05-05 10:19 52.98333 157.26246 25750 ft 426 kts 78°
2026-05-05 10:20 52.99101 157.30959 25245 ft 423 kts 78°
2026-05-05 10:20 52.99863 157.35641 24741 ft 419 kts 78°
2026-05-05 10:20 53.00617 157.40278 24206 ft 415 kts 78°
2026-05-05 10:20 53.01355 157.44817 23739 ft 403 kts 78°
2026-05-05 10:21 53.01836 157.47774 23430 ft 396 kts 78°
2026-05-05 10:21 53.02773 157.53543 22798 ft 384 kts 78°
2026-05-05 10:21 53.03453 157.57752 22340 ft 375 kts 79°
2026-05-05 10:21 53.04101 157.61882 21829 ft 367 kts 81°
2026-05-05 10:22 53.04605 157.65996 21286 ft 364 kts 84°
2026-05-05 10:22 53.05012 157.70119 20794 ft 362 kts 85°
2026-05-05 10:22 53.05385 157.74232 20347 ft 360 kts 86°
2026-05-05 10:22 53.05751 157.78306 19913 ft 357 kts 86°
2026-05-05 10:23 53.06122 157.82359 19478 ft 355 kts 85°
2026-05-05 10:23 53.06498 157.86382 19052 ft 353 kts 85°
2026-05-05 10:23 53.06879 157.90375 18625 ft 350 kts 85°
2026-05-05 10:23 53.07261 157.94345 18201 ft 348 kts 85°
2026-05-05 10:24 53.07639 157.98277 17852 ft 343 kts 85°
2026-05-05 10:24 53.08012 158.02155 17457 ft 340 kts 85°
2026-05-05 10:24 53.08385 158.06009 17031 ft 338 kts 85°
2026-05-05 10:24 53.08755 158.09828 16638 ft 335 kts 85°
2026-05-05 10:25 53.09119 158.13622 16227 ft 332 kts 85°
2026-05-05 10:25 53.09480 158.17388 15811 ft 330 kts 84°
2026-05-05 10:25 53.09842 158.21132 15409 ft 328 kts 85°
2026-05-05 10:25 53.10203 158.24837 14993 ft 325 kts 84°
2026-05-05 10:26 53.10562 158.28506 14613 ft 321 kts 84°
2026-05-05 10:26 53.10913 158.32144 14215 ft 318 kts 84°
2026-05-05 10:26 53.11255 158.35752 13807 ft 316 kts 84°
2026-05-05 10:26 53.11593 158.39346 13398 ft 314 kts 84°
2026-05-05 10:27 53.11930 158.42905 13019 ft 313 kts 85°
2026-05-05 10:27 53.12144 158.45274 12730 ft 311 kts 85°
2026-05-05 10:27 53.12563 158.49981 12215 ft 308 kts 85°
2026-05-05 10:27 53.12870 158.53479 11820 ft 306 kts 84°
2026-05-05 10:28 53.13201 158.56966 11410 ft 306 kts 84°
2026-05-05 10:28 53.13543 158.60436 11014 ft 304 kts 84°
2026-05-05 10:28 53.13747 158.63835 10945 ft 288 kts 93°
2026-05-05 10:28 53.13449 158.67049 10930 ft 278 kts 114°
2026-05-05 10:29 53.12469 158.69680 10883 ft 261 kts 135°
2026-05-05 10:29 53.11086 158.71557 10460 ft 259 kts 148°
2026-05-05 10:29 53.09489 158.72948 9872 ft 263 kts 153°
2026-05-05 10:29 53.07798 158.74132 9236 ft 268 kts 156°
2026-05-05 10:30 53.06060 158.75266 8593 ft 272 kts 156°
2026-05-05 10:30 53.04312 158.76425 8086 ft 271 kts 155°
2026-05-05 10:30 53.02569 158.77601 7684 ft 272 kts 155°
2026-05-05 10:30 53.00829 158.78777 7388 ft 268 kts 156°
2026-05-05 10:31 52.99080 158.79660 7305 ft 259 kts 166°
2026-05-05 10:31 52.97322 158.79543 7201 ft 255 kts 195°
2026-05-05 10:31 52.96287 158.78609 7019 ft 259 kts 215°
2026-05-05 10:31 52.94964 158.75230 6326 ft 270 kts 249°
2026-05-05 10:32 52.94452 158.72312 5905 ft 261 kts 252°
2026-05-05 10:32 52.93870 158.69512 5427 ft 255 kts 247°
2026-05-05 10:32 52.93289 158.66789 5021 ft 249 kts 254°
2026-05-05 10:32 52.93105 158.64932 4802 ft 245 kts 270°
2026-05-05 10:33 52.93842 158.61620 4400 ft 224 kts 317°
2026-05-05 10:33 52.95052 158.60207 4144 ft 206 kts 341°
2026-05-05 10:33 52.96321 158.59321 4064 ft 193 kts 342°
2026-05-05 10:33 52.97541 158.58422 3839 ft 192 kts 341°
2026-05-05 10:34 52.98768 158.57556 3545 ft 191 kts 342°
2026-05-05 10:34 52.99990 158.56726 3300 ft 189 kts 342°
2026-05-05 10:34 53.01195 158.55901 3046 ft 187 kts 342°
2026-05-05 10:34 53.02387 158.55080 2795 ft 185 kts 343°
2026-05-05 10:35 53.03564 158.54271 2552 ft 182 kts 343°
2026-05-05 10:35 53.04721 158.53466 2315 ft 180 kts 342°
2026-05-05 10:35 53.05862 158.52675 2088 ft 177 kts 345°
2026-05-05 10:35 53.06997 158.51935 1860 ft 174 kts 343°
2026-05-05 10:36 53.08083 158.51167 1638 ft 165 kts 342°
2026-05-05 10:36 53.09127 158.50441 1427 ft 161 kts 343°
2026-05-05 10:36 53.10167 158.49743 1234 ft 161 kts 341°
2026-05-05 10:36 53.11166 158.49040 1033 ft 155 kts 340°
2026-05-05 10:37 53.12154 158.48366 834 ft 153 kts 340°
2026-05-05 10:37 53.13142 158.47685 645 ft 155 kts 338°
2026-05-05 10:37 53.13801 158.47215 517 ft 155 kts 338°
2026-05-05 10:37 53.15120 158.46328 255 ft 151 kts 337°
2026-05-05 10:38 53.15749 158.45890 135 ft 143 kts 336°
2026-05-05 10:38 53.16610 158.45294 126 ft 68 kts 338°
2026-05-05 10:38 53.17012 158.45015 122 ft 58 kts 338°
2026-05-05 10:38 53.17248 158.44853 119 ft 51 kts 337°
2026-05-05 10:39 53.17552 158.44646 115 ft 19 kts 340°
2026-05-05 10:39 53.17596 158.44547 112 ft 13 kts 250°
2026-05-05 10:39 53.17551 158.44407 110 ft 14 kts 244°
2026-05-05 10:39 53.17506 158.44231 107 ft 19 kts 248°
2026-05-05 10:40 53.17469 158.44076 106 ft 23 kts 246°
2026-05-05 10:40 53.17359 158.43752 99 ft 25 kts 240°
2026-05-05 10:40 53.17268 158.43495 97 ft 25 kts 239°
2026-05-05 10:40 53.17174 158.43230 91 ft 27 kts 239°
2026-05-05 10:41 53.17078 158.42955 89 ft 26 kts 240°
2026-05-05 10:41 53.17020 158.42785 89 ft 5 kts 236°
2026-05-05 10:41 53.16988 158.42774 89 ft 4 kts 176°
2026-05-05 10:41 53.16948 158.42786 89 ft 8 kts 159°
2026-05-05 10:42 53.16877 158.42766 89 ft 7 kts 276°
2026-05-05 10:42 53.16879 158.42714 88 ft 1 kts 273°